KI5NYZ Weather Reports


Display with metric or nautical units.
time (UTC)temp
F
wind
direction
speed
MPH
gust
MPH
rain 1hr
in
rain 24hr
in
rain mn
in
humidity
%
barometer
mb
20260831165021 89 173 5.0 11.0 0.06 0.37 0.09 42 1018.2
20260831164020 88 173 3.0 9.0 0.06 0.37 0.08 43 1018.2
20260831163051 87 184 5.0 10.0 0.05 0.37 0.07 46 1018.2
20260831162022 87 184 5.0 10.0 0.04 0.36 0.05 47 1018.2
20260831161022 86 191 4.0 9.0 0.03 0.35 0.04 49 1018.2
20260831160044 85 187 4.0 8.0 0.03 0.34 0.03 51 1018.2
20260831155021 84 186 4.0 8.0 0.02 0.34 0.02 53 1018.1
20260831154021 84 197 4.0 7.0 0.02 0.34 0.02 54 1018.1
20260831153030 83 190 3.0 7.0 0.02 0.34 0.02 56 1018.1
20260831152022 82 197 3.0 8.0 0.01 0.33 0.01 56 1018.2
20260831151021 81 191 4.0 10.0 0.01 0.33 0.01 59 1018.2
20260831150022 80 191 4.0 8.0 0.00 0.33 0.00 60 1018.2
20260831145019 79 214 3.0 8.0 0.00 0.34 0.00 61 1018.2
20260831144020 78 198 4.0 8.0 0.00 0.34 0.00 62 1018.1
20260831143040 78 201 3.0 7.0 0.00 0.34 0.00 63 1018.2
20260831142024 77 196 3.0 7.0 0.00 0.34 0.00 63 1018.1
20260831141024 76 183 3.0 8.0 0.00 0.34 0.00 63 1018.1
20260831140020 75 176 3.0 5.0 0.00 0.34 0.00 64 1018.0
20260831135019 74 178 2.0 5.0 0.00 0.34 0.00 65 1017.7
20260831134020 73 183 1.0 4.0 0.00 0.34 0.00 66 1017.6
20260831133023 72 176 0.0 2.0 0.00 0.34 0.00 67 1017.6
20260831132022 71 0 0.0 0.0 0.00 0.34 0.00 67 1017.5
20260831131022 70 0 0.0 0.0 0.00 0.34 0.00 68 1017.4
20260831130041 69 0 0.0 0.0 0.00 0.34 0.00 68 1017.2
20260831125020 69 197 0.0 2.0 0.00 0.34 0.00 70 1017.1
20260831124020 68 198 0.0 2.0 0.00 0.34 0.00 71 1016.9
20260831123047 68 209 0.0 2.0 0.00 0.34 0.00 70 1016.8
20260831122020 69 207 0.0 3.0 0.00 0.34 0.00 69 1016.8
20260831121023 69 203 2.0 3.0 0.00 0.34 0.00 68 1016.6
20260831120020 69 212 2.0 10.0 0.00 0.34 0.00 67 1016.6
20260831115020 69 223 2.0 4.0 0.00 0.34 0.00 67 1016.6
20260831114021 70 191 2.0 4.0 0.00 0.34 0.00 66 1016.6
20260831113044 70 191 3.0 5.0 0.00 0.34 0.00 65 1016.6
20260831112021 71 189 2.0 5.0 0.00 0.34 0.00 65 1016.6
20260831111020 71 196 2.0 6.0 0.00 0.34 0.00 64 1016.6
20260831110040 70 195 3.0 5.0 0.00 0.34 0.00 64 1016.6
20260831105023 69 198 2.0 5.0 0.00 0.34 0.00 67 1016.5
20260831104021 70 238 0.0 2.0 0.00 0.34 0.00 67 1016.6
20260831103020 71 218 1.0 3.0 0.00 0.34 0.00 63 1016.6
20260831102022 71 202 2.0 5.0 0.00 0.34 0.00 63 1016.5
20260831101021 72 208 2.0 8.0 0.00 0.34 0.00 62 1016.5
20260831100022 72 208 2.0 6.0 0.00 0.34 0.00 62 1016.4
20260831095026 72 208 2.0 7.0 0.00 0.34 0.00 62 1016.4
20260831094047 72 207 2.0 6.0 0.00 0.34 0.00 61 1016.4
20260831093043 72 205 2.0 5.0 0.00 0.34 0.00 61 1016.3
20260831092023 72 202 1.0 4.0 0.00 0.34 0.00 61 1016.3
20260831091026 72 206 1.0 4.0 0.00 0.34 0.00 61 1016.2
20260831090023 72 213 2.0 7.0 0.00 0.34 0.00 61 1016.1
20260831085020 73 213 2.0 7.0 0.00 0.34 0.00 60 1016.0
20260831084042 73 200 2.0 4.0 0.00 0.34 0.00 58 1015.9
20260831083023 74 190 1.0 3.0 0.00 0.34 0.00 57 1016.0
20260831082024 74 195 1.0 3.0 0.00 0.34 0.00 56 1015.9
20260831081020 75 196 2.0 5.0 0.00 0.34 0.00 55 1015.9
20260831080043 75 186 2.0 5.0 0.00 0.34 0.00 55 1015.9
20260831075019 76 190 2.0 6.0 0.00 0.34 0.00 53 1015.8
20260831074021 76 179 3.0 7.0 0.00 0.34 0.00 53 1015.9
20260831073020 76 176 3.0 6.0 0.00 0.34 0.00 52 1015.8
20260831072019 77 179 3.0 7.0 0.00 0.34 0.00 51 1015.8
20260831071041 77 174 4.0 7.0 0.00 0.34 0.00 50 1015.7
20260831070023 77 177 3.0 7.0 0.00 0.34 0.00 50 1015.6
20260831065042 78 176 3.0 5.0 0.00 0.34 0.00 49 1015.6
20260831064024 78 175 3.0 6.0 0.00 0.34 0.00 49 1015.7
20260831063020 78 180 4.0 7.0 0.00 0.34 0.00 48 1015.7
20260831062024 78 179 3.0 6.0 0.00 0.34 0.00 48 1015.8
20260831061022 79 184 3.0 6.0 0.00 0.34 0.00 47 1015.8
20260831060027 79 182 3.0 7.0 0.00 0.34 0.00 46 1015.8
20260831055021 79 181 4.0 6.0 0.00 0.34 0.00 47 1015.7
20260831054024 79 177 1.0 5.0 0.00 0.34 0.00 46 1015.8
20260831053022 80 191 2.0 4.0 0.00 0.34 0.00 45 1015.7
20260831052020 81 194 1.0 5.0 0.00 0.34 0.00 43 1015.7
20260831051019 81 183 3.0 6.0 0.00 0.34 0.00 43 1015.6
20260831050020 81 182 3.0 5.0 0.00 0.34 0.00 43 1015.6
20260831045022 82 185 3.0 5.0 0.00 0.34 0.34 43 1015.6
20260831044039 82 185 3.0 5.0 0.00 0.34 0.34 42 1015.6
20260831043019 82 181 3.0 8.0 0.00 0.34 0.34 42 1015.6
20260831042020 83 171 3.0 6.0 0.00 0.34 0.34 41 1015.6
20260831041022 83 178 4.0 7.0 0.00 0.34 0.34 41 1015.5
20260831040041 83 183 3.0 6.0 0.00 0.34 0.34 41 1015.5
20260831035021 83 182 4.0 6.0 0.00 0.34 0.34 40 1015.5
20260831034020 84 180 3.0 7.0 0.00 0.34 0.34 40 1015.4
20260831033025 84 172 3.0 6.0 0.00 0.34 0.34 39 1015.3
20260831032020 84 171 2.0 6.0 0.00 0.34 0.34 39 1015.3
20260831031020 84 170 3.0 6.0 0.00 0.34 0.34 39 1015.2
20260831030023 84 178 2.0 5.0 0.00 0.34 0.34 39 1015.1
20260831025022 84 177 2.0 5.0 0.00 0.34 0.34 38 1015.0
20260831024025 84 181 1.0 4.0 0.00 0.34 0.34 38 1014.9
20260831023023 84 199 0.0 4.0 0.00 0.34 0.34 37 1014.8
20260831022023 85 161 0.0 3.0 0.00 0.34 0.34 36 1014.7
20260831021025 86 187 0.0 3.0 0.00 0.34 0.34 36 1014.6
20260831020023 86 145 0.0 2.0 0.00 0.34 0.34 35 1014.5
20260831015023 87 189 1.0 4.0 0.00 0.34 0.34 34 1014.4
20260831014020 88 194 0.0 3.0 0.00 0.34 0.34 34 1014.3
20260831013025 89 187 1.0 3.0 0.00 0.34 0.34 33 1014.2
20260831012019 90 173 1.0 5.0 0.00 0.34 0.34 32 1014.2
20260831011019 92 171 1.0 6.0 0.00 0.34 0.34 31 1014.1
20260831010022 93 179 1.0 4.0 0.01 0.34 0.34 29 1014.1
20260831005026 94 177 1.0 6.0 0.01 0.34 0.34 28 1014.0
20260831004103 96 172 2.0 5.0 0.01 0.34 0.34 27 1013.9
20260831003020 96 181 1.0 4.0 0.02 0.34 0.34 26 1013.9
20260831002020 96 129 1.0 5.0 0.02 0.34 0.34 26 1013.9
20260831001024 96 174 3.0 8.0 0.02 0.34 0.33 25 1013.9
20260831000023 97 169 2.0 6.0 0.02 0.33 0.33 26 1013.8
20260830235045 98 185 4.0 9.0 0.02 0.33 0.33 24 1013.9
20260830234022 98 167 2.0 7.0 0.02 0.33 0.32 24 1013.9
20260830233042 98 187 2.0 8.0 0.02 0.33 0.32 24 1013.8
20260830232024 98 183 3.0 8.0 0.03 0.33 0.32 24 1013.8
20260830231043 98 178 1.0 6.0 0.02 0.33 0.31 24 1013.9
20260830230023 98 187 5.0 10.0 0.02 0.33 0.31 23 1013.8
20260830225027 98 179 2.0 7.0 0.02 0.33 0.30 23 1013.8
20260830224020 98 185 4.0 9.0 0.03 0.33 0.30 24 1013.9
20260830223028 99 175 2.0 9.0 0.02 0.32 0.29 24 1013.9
20260830222039 99 160 2.0 8.0 0.02 0.32 0.29 24 1013.9
20260830221018 99 179 3.0 9.0 0.03 0.32 0.29 24 1014.0
20260830220024 99 181 3.0 9.0 0.03 0.32 0.28 24 1014.2
20260830215020 99 180 4.0 9.0 0.03 0.33 0.28 25 1014.2
20260830214021 99 184 4.0 9.0 0.03 0.33 0.27 25 1014.4
20260830213019 98 131 2.0 6.0 0.03 0.33 0.27 26 1014.5
20260830212020 98 196 3.0 9.0 0.04 0.32 0.26 26 1014.7
20260830211022 98 185 2.0 6.0 0.04 0.32 0.26 27 1014.9
20260830210104 98 188 3.0 10.0 0.05 0.32 0.26 27 1014.9
20260830205023 97 193 3.0 7.0 0.05 0.32 0.25 27 1015.0
20260830204024 97 190 5.0 11.0 0.05 0.32 0.25 28 1015.2
20260830203103 97 183 4.0 11.0 0.05 0.32 0.24 27 1015.3
20260830202026 97 180 3.0 9.0 0.06 0.32 0.23 27 1015.5
20260830201021 96 188 4.0 10.0 0.06 0.33 0.22 28 1015.7
20260830200045 96 184 5.0 10.0 0.05 0.32 0.21 28 1015.9
20260830195025 97 184 3.0 7.0 0.05 0.31 0.20 27 1016.0
20260830194023 96 185 2.0 9.0 0.06 0.31 0.20 28 1016.1
20260830193019 96 180 5.0 10.0 0.06 0.31 0.19 29 1016.2
20260830192020 96 190 5.0 9.0 0.05 0.30 0.17 29 1016.3
20260830191018 95 179 4.0 11.0 0.05 0.30 0.16 30 1016.4
20260830190024 95 196 5.0 11.0 0.05 0.30 0.16 30 1016.4
20260830185020 95 184 5.0 11.0 0.06 0.30 0.15 30 1016.6
20260830184019 94 177 4.0 9.0 0.05 0.29 0.14 31 1016.6
20260830183022 95 190 5.0 14.0 0.05 0.28 0.13 30 1016.8
20260830182021 95 178 4.0 9.0 0.04 0.27 0.12 31 1016.9
20260830181022 94 192 3.0 10.0 0.04 0.27 0.11 32 1017.1
20260830180020 93 199 4.0 9.0 0.04 0.27 0.10 32 1017.2
20260830175023 93 187 4.0 11.0 0.04 0.26 0.09 34 1017.3
20260830174020 93 220 4.0 8.0 0.04 0.25 0.09 35 1017.5
20260830173103 91 197 4.0 9.0 0.04 0.25 0.08 37 1017.6
20260830172021 91 211 4.0 10.0 0.05 0.25 0.08 38 1017.7
20260830171020 91 201 3.0 8.0 0.05 0.25 0.08 38 1017.8
20260830170024 90 193 4.0 11.0 0.04 0.25 0.07 41 1017.9